Flag for Argentina Weather past 2 weeks in Formosa, Formosa, Argentina

Now
63 °F

Overcast.


Feels Like: 63 °F
Forecast: 59 / 71 °F
Wind: 5 mph from Southeast

Location: Formosa Aerodrome

Current Time: Jul 2, 2015 at 10:34:01 AM

Latest Report: Jul 2, 2015 at 10:00 AM


Visibility: N/A

Pressure: 29.98 "Hg

Humidity: 94%

Dew point: 61 °F

Location of FormosaLocation

Historic Weather in Formosa — Graph

°F

Formosa temperature yesterday

Maximum temperature yesterday: 72 °F (at 2:00 PM)
Minimum temperature yesterday: 50 °F (at 7:00 AM)
Average temperature yesterday: 62 °F

Past Weeks' High & Low Weather Summary

 TemperatureHumidityPressure
High84 °F (Jun 22, 1:00 PM)100% (Jun 17, 4:00 PM)30.45 "Hg (Jun 17, 4:00 PM)
Low43 °F (Jun 19, 7:00 AM)52% (Jun 19, 3:00 PM)29.77 "Hg (Jun 29, 3:00 PM)
Average64 °F88%30.10 "Hg
* Reported Jun 17 9:00 AM — Jul 2 9:00 AM, Formosa, Weather by CustomWeather, © 2015

Note: Actual official high and low records may vary slightly from our data, if they occured in-between our weather recording intervals... More about our weather records

Advertising

Formosa weather history for previous 24 hours

 ConditionsComfort  
Time TempWeatherWind HumidityBarometerVisibility
9:00 AM
Thu, Jul 2
61 °FOvercast.5 mph100%29.95 "HgN/A
8:00 AM61 °FOvercast.3 mph100%29.95 "HgN/A
7:00 AM61 °FScattered clouds.5 mph94%29.92 "HgN/A
6:00 AM61 °FPassing clouds.6 mph94%29.92 "HgN/A
5:00 AM59 °FPassing clouds.5 mph100%29.95 "HgN/A
4:00 AM59 °FPassing clouds.5 mph100%29.95 "HgN/A
3:00 AM59 °FClear.3 mph100%29.98 "Hg10 mi
2:00 AM59 °FClear.3 mph100%30.01 "Hg10 mi
1:00 AM59 °FClear.3 mph100%30.01 "Hg10 mi
12:00 AM61 °FClear.5 mph94%30.04 "Hg10 mi
11:00 PM
Wed, Jul 1
63 °FClear.5 mph94%30.04 "Hg10 mi
10:00 PM64 °FPassing clouds.6 mph94%30.04 "HgN/A
9:00 PM63 °FPassing clouds.6 mph94%30.04 "HgN/A
8:00 PM63 °FPassing clouds.7 mph94%30.04 "HgN/A
7:00 PM64 °FClear.3 mph88%30.04 "Hg10 mi
6:00 PM66 °FPassing clouds.3 mph88%30.01 "HgN/A
5:00 PM70 °FPassing clouds.5 mph83%30.01 "HgN/A
4:00 PM70 °FPassing clouds.8 mph73%30.01 "HgN/A
3:00 PM72 °FPassing clouds.8 mph65%30.04 "HgN/A
2:00 PM72 °FPassing clouds.9 mph65%30.07 "HgN/A
1:00 PM70 °FSunny.14 mph69%30.09 "Hg10 mi
12:00 PM68 °FPassing clouds.14 mph73%30.12 "HgN/A
11:00 AM64 °FScattered clouds.12 mph83%30.12 "HgN/A
10:00 AM64 °FSunny.7 mph83%30.12 "Hg10 mi
Weather by CustomWeather, © 2015

See weather overviewHow to use our weather pages